This is the latest recevied weather packets stored in our database for station/object N4MGC. If no packets are shown the sender has not sent any weather packets the latest 10 day(s).
| Time | Temp. | Humidity | Pressure | Rain* | Wind** | Luminosity | Snow |
|---|---|---|---|---|---|---|---|
| 1777473547 | 20.56° C | 99% | 1013.8 hPa | 0 mm | - | 165 W/m² | - |
| 1777473242 | 20.56° C | 99% | 1013.7 hPa | 0 mm | - | 153 W/m² | - |
| 1777472939 | 20.56° C | 99% | 1013.8 hPa | 0 mm | - | 170 W/m² | - |
| 1777472636 | 20.56° C | 99% | 1014 hPa | 0 mm | - | 160 W/m² | - |
| 1777472332 | 20° C | 99% | 1013.8 hPa | 0 mm | - | 206 W/m² | - |
| 1777472030 | 20° C | 99% | 1013.9 hPa | 0 mm | - | 163 W/m² | - |
| 1777471725 | 20° C | 99% | 1013.8 hPa | 0 mm | - | 173 W/m² | - |
| 1777471422 | 20° C | 99% | 1014.2 hPa | 0 mm | - | 143 W/m² | - |
| 1777471118 | 20° C | 99% | 1014.3 hPa | 0 mm | - | 200 W/m² | - |
| 1777470815 | 19.44° C | 99% | 1014.3 hPa | 0 mm | - | 208 W/m² | - |
| 1777470513 | 19.44° C | 99% | 1014.3 hPa | 0 mm | - | 117 W/m² | - |
| 1777470208 | 19.44° C | 99% | 1014 hPa | 0 mm | - | 146 W/m² | - |
| 1777469905 | 18.89° C | 99% | 1014 hPa | 0 mm | - | 119 W/m² | - |
| 1777469600 | 18.89° C | 99% | 1014 hPa | 0 mm | - | 95 W/m² | - |
| 1777469300 | 18.89° C | 99% | 1014.2 hPa | 0 mm | - | 116 W/m² | - |
| 1777468996 | 18.33° C | 99% | 1014.3 hPa | 0 mm | - | 109 W/m² | - |
| 1777468691 | 18.33° C | 99% | 1014.5 hPa | 0 mm | - | 71 W/m² | - |
| 1777468388 | 18.33° C | 99% | 1014.5 hPa | 0 mm | - | 66 W/m² | - |
| 1777468084 | 18.33° C | 99% | 1014.4 hPa | 0 mm | - | 47 W/m² | - |
| 1777467781 | 18.33° C | 99% | 1014.4 hPa | 0 mm | - | 81 W/m² | - |
| 1777467476 | 18.33° C | 99% | 1014.4 hPa | 0 mm | - | 179 W/m² | - |
| 1777467171 | 18.33° C | 99% | 1014.3 hPa | 0 mm | - | 101 W/m² | - |
| 1777466869 | 18.33° C | 99% | 1014.3 hPa | 0 mm | - | 59 W/m² | - |
| 1777466567 | 18.33° C | 99% | 1014.4 hPa | 0 mm | - | 43 W/m² | - |
| 1777466263 | 17.78° C | 99% | 1014.2 hPa | 0 mm | - | 125 W/m² | - |
* Rain latest hour (hover to see other rain measurements)
** Current wind speed in m/s (hover to see current wind gust speed)